Regional Weather Roundup
Issued by NWS

Home | Current Version | Previous Version | Text Only | Print | Product List | Glossary Off
Versions: 1 2 3 4 5 6 7 8 9 10 11 12 13 14 15 16 17 18 19 20 21 22 23 24 25 26 27 28 29 30 31 32 33 34 35 36 37 38 39 40 41 42 43 44 45 46 47 48 49 50

000
ASUS43 KMKX 281810
RWRWI

WISCONSIN REGIONAL WEATHER ROUNDUP
NATIONAL WEATHER SERVICE MILWAUKEE/SULLIVAN WI
1200 PM CST WED JAN 28 2015

NOTE: "FAIR" INDICATES FEW OR NO CLOUDS BELOW 12,000 FEET WITH NO
SIGNIFICANT WEATHER AND/OR OBSTRUCTIONS TO VISIBILITY.

WIZ001-002-006>008-014>016-023>028-281900-
NORTHWEST WISCONSIN

CITY           SKY/WX    TMP DP  RH WIND       PRES   REMARKS
SUPERIOR ARPT  CLOUDY    29  24  79 S6        29.95F WCI  23
6HR MIN TEMP:  25; 6HR MAX TEMP:  29;

ASHLAND        FAIR      31  23  72 S7        29.98F WCI  24
6HR MIN TEMP:  22; 6HR MAX TEMP:  32;

HAYWARD        CLOUDY    27  23  85 S9        29.95F FOG     WCI  18
6HR MIN TEMP:  23; 6HR MAX TEMP:  27;

SIREN          CLOUDY    29  23  81 S13G20    29.95F HAZE    WCI  18
6HR MIN TEMP:  25; 6HR MAX TEMP:  29;

CUMBERLAND     CLOUDY    27  23  86 SE13      29.95F FOG     WCI  16
RICE LAKE      CLOUDY    27  24  87 SE15G21   29.98F FOG     WCI  15
6HR MIN TEMP:  24; 6HR MAX TEMP:  27;

CHETEK         CLOUDY    27  24  87 SE16      29.98F FOG     WCI  15
6HR MIN TEMP:  24; 6HR MAX TEMP:  27;

LADYSMITH      CLOUDY    28  24  84 SE12G17   30.01F FOG     WCI  18
6HR MIN TEMP:  25; 6HR MAX TEMP:  28;

EAU CLAIRE     CLOUDY    28  22  78 SE15      29.99F HAZE    WCI  16
6HR MIN TEMP:  24; 6HR MAX TEMP:  28;

MENOMONIE      CLOUDY    29  24  84 SE14      30.00F FOG     WCI  18
6HR MIN TEMP:  26; 6HR MAX TEMP:  29;

NEW RICHMOND   CLOUDY    28  24  86 S13       29.96F FOG     WCI  17
6HR MIN TEMP:  26; 6HR MAX TEMP:  28;

OSCEOLA        CLOUDY    29  25  86 SE14      29.98F FOG     WCI  18
6HR MIN TEMP:  27; 6HR MAX TEMP:  29;

$$

WIZ003>005-009-010-017-018-281900-
NORTH CENTRAL WISCONSIN

CITY           SKY/WX    TMP DP  RH WIND       PRES   REMARKS
MANITOWISH WTR CLOUDY    25  22  87 SE13      29.98F WCI  13
6HR MIN TEMP:  22; 6HR MAX TEMP:  25;

ARBOR VITAE    CLOUDY    26  22  85 SE9G18    29.99F WCI  16
6HR MIN TEMP:  23; 6HR MAX TEMP:  26;

WOODRUFF       CLOUDY    26  22  85 SE9G18    29.99F WCI  16
6HR MIN TEMP:  23; 6HR MAX TEMP:  26;

RHINELANDER    CLOUDY    25  19  78 S10       30.03F WCI  15
6HR MIN TEMP:  22; 6HR MAX TEMP:  25;

EAGLE RIVER    CLOUDY    25  19  78 S12       30.01F WCI  14
6HR MIN TEMP:  22; 6HR MAX TEMP:  25;

LAND O LAKES   CLOUDY    27  22  82 S10       30.01F WCI  17
6HR MIN TEMP:  23; 6HR MAX TEMP:  27;

PHILLIPS       CLOUDY    25  22  87 SE12      29.98F WCI  15
6HR MIN TEMP:  22; 6HR MAX TEMP:  25;

TOMAHAWK       PTSUNNY   27  21  79 SE6       30.02F WCI  20
6HR MIN TEMP:  22; 6HR MAX TEMP:  27;

MEDFORD        CLOUDY    24  21  88 SE14      30.01F WCI  12
6HR MIN TEMP:  22; 6HR MAX TEMP:  24;

MERRILL        SUNNY     29  21  74 S10       30.04F WCI  19
6HR MIN TEMP:  23; 6HR MAX TEMP:  29;

$$

WIZ029-030-035-036-043>047-281900-
CENTRAL WISCONSIN

CITY           SKY/WX    TMP DP  RH WIND       PRES   REMARKS
WAUSAU         SUNNY     26  20  77 SE15      30.05F WCI  14
6HR MIN TEMP:  24; 6HR MAX TEMP:  26;

MOSINEE        CLOUDY    27  21  80 S12       30.09S WCI  16
MARSHFIELD     CLOUDY    25  22  88 S17       30.04F FOG     WCI  12
6HR MIN TEMP:  24; 6HR MAX TEMP:  25;

STEVENS POINT  CLOUDY    24  19  81 S15       30.09F WCI  12
6HR MIN TEMP:  22; 6HR MAX TEMP:  25;

WAUPACA        PTSUNNY   32  21  64 S13G20    30.13F WCI  22
6HR MIN TEMP:  26; 6HR MAX TEMP:  32;

WAUTOMA        CLOUDY    29  22  75 S14G22    30.13F WCI  18
6HR MIN TEMP:  23; 6HR MAX TEMP:  29;

WISC RAPIDS    CLOUDY    26  20  77 S10       30.09F WCI  16
6HR MIN TEMP:  24; 6HR MAX TEMP:  26;

CAMP DOUGLAS   CLOUDY    27  27 100 SE12      30.06F FOG     WCI  16
$$

WIZ011>013-019>022-031-037>040-048>050-281900-
NORTHEAST WISCONSIN

CITY           SKY/WX    TMP DP  RH WIND       PRES   REMARKS
ANTIGO         PTSUNNY   25  20  80 S15       30.06F WCI  12
6HR MIN TEMP:  20; 6HR MAX TEMP:  25;

SHAWANO        PTSUNNY   32  20  61 S10G17    30.13F WCI  24
6HR MIN TEMP:  25; 6HR MAX TEMP:  32;

OCONTO         PTSUNNY   29  22  73 MISG      30.15F
6HR MIN TEMP:   9; 6HR MAX TEMP:  29;

STURGEON BAY   CLOUDY    28  21  74 S9        30.17F WCI  20
6HR MIN TEMP:  18; 6HR MAX TEMP:  28;

GREEN BAY      PTSUNNY   30  22  72 S12       30.14F WCI  20
6HR MIN TEMP:  17; 6HR MAX TEMP:  30;

MANITOWOC      CLOUDY    31  26  82 S16       30.16  WCI  20
6HR MIN TEMP:  14; 6HR MAX TEMP:  32;

APPLETON       CLOUDY    28  19  69 S13G21    30.13F WCI  18
CLINTONVILLE   PTSUNNY   30  19  64 S12       30.12F WCI  21
OSHKOSH        PTSUNNY   29  20  69 S13       30.14F WCI  19
6HR MIN TEMP:  22; 6HR MAX TEMP:  29;

$$

WIZ032>034-041-042-053>061-281900-
SOUTHWEST WISCONSIN

CITY           SKY/WX    TMP DP  RH WIND       PRES   REMARKS
LA CROSSE      CLOUDY    30  25  81 SE14      30.03F HAZE    WCI  19
6HR MIN TEMP:  27; 6HR MAX TEMP:  30;

SPARTA         CLOUDY    28  24  85 SE8       30.05F FOG     WCI  20
6HR MIN TEMP:  26; 6HR MAX TEMP:  29;

VIROQUA        CLOUDY    28  28 100 SE15      30.01F WCI  16
6HR MIN TEMP:  24; 6HR MAX TEMP:  28;

BOSCOBEL       PTSUNNY   32  24  72 VRB7      30.07F WCI  26
6HR MIN TEMP:  28; 6HR MAX TEMP:  32;

PRAIRIE DU CHI FAIR      33  23  67 SE12G18   30.03F WCI  24
6HR MIN TEMP:  26; 6HR MAX TEMP:  33;

PLATTEVILLE    FAIR      31  23  71 SE13      30.06F WCI  22
6HR MIN TEMP:  26; 6HR MAX TEMP:  31;

$$

WIZ056-057-062-063-064-067-068-281900-
SOUTH CENTRAL WISCONSIN

CITY           SKY/WX    TMP DP  RH WIND       PRES   REMARKS
REEDSBURG      CLOUDY    27  24  89 S10       30.08F FOG     WCI  17
6HR MIN TEMP:  24; 6HR MAX TEMP:  27;

BARABOO/DELLS  CLOUDY    27  24  89 S13       30.09F FOG     WCI  16
6HR MIN TEMP:  23; 6HR MAX TEMP:  27;

LONE ROCK      PTSUNNY   31  24  75 SE7       30.09F WCI  24
6HR MIN TEMP:  26; 6HR MAX TEMP:  31;

MINERAL POINT  FAIR      32  23  69 SE18      30.06F WCI  20
MADISON        CLOUDY    29  21  72 S17       30.12F WCI  17
6HR MIN TEMP:  21; 6HR MAX TEMP:  29;

MIDDLETON      FAIR      32  22  68 S15       30.11F WCI  22
6HR MIN TEMP:  24; 6HR MAX TEMP:  32;

WATERTOWN      MOSUNNY   31  21  65 S15       30.14S WCI  21
6HR MIN TEMP:  19; 6HR MAX TEMP:  31;

MONROE         FAIR      30  23  74 SE18      30.09F WCI  18
JANESVILLE     SUNNY     32  21  64 S17       30.14F WCI  21
$$

WIZ051-052-058>065-066-070>072-281900-
SOUTHEAST WISCONSIN

CITY           SKY/WX    TMP DP  RH WIND       PRES   REMARKS
MILWAUKEE      PTSUNNY   33  19  56 S14       30.17F WCI  23
6HR MIN TEMP:  22; 6HR MAX TEMP:  33;

WAUKESHA       SUNNY     28  19  69 SE14      30.16F WCI  17
MILWAUKEE/TIMM SUNNY     32  18  55 S13       30.17F WCI  22
RACINE         MOSUNNY   31  17  56 S15       30.18F WCI  20
6HR MIN TEMP:  18; 6HR MAX TEMP:  31;

BURLINGTON     PTSUNNY   30  18  59 S10       30.15F WCI  21
6HR MIN TEMP:  12; 6HR MAX TEMP:  31;

KENOSHA        MOSUNNY   33  17  51 S12       30.16F WCI  24
6HR MIN TEMP:  19; 6HR MAX TEMP:  33;

FOND DU LAC    PTSUNNY   30  20  66 S14       30.14F WCI  19
6HR MIN TEMP:  21; 6HR MAX TEMP:  30;

SHEBOYGAN      PTSUNNY   30  23  75 S15       30.16F WCI  19
6HR MIN TEMP:  15; 6HR MAX TEMP:  31;

WEST BEND      PTSUNNY   32  21  64 S10       30.14F WCI  24
JUNEAU         MOSUNNY   29  20  68 SE15      30.15S WCI  18
6HR MIN TEMP:  18; 6HR MAX TEMP:  29;

$$

LSZ147-162-281900-
LAKE SUPERIOR

STATION/POSITION TIME  TEMP    WIND        PRES    WAVE
                       AIR SEA DIR/SP/G            HT/PER
                 (UTC) (F)     (DEG/KT/KT) (MB)    (FT/S)
DEVILS ISLAND    1800   29     130/  8/ 10 1015.8F
PORT WING        1700   29     170/  4/  8 1015.6
SAXON HARBOR     1720   31     140/  1/ 14 1015.6F
$$

LMZ867-665-643>646-281900-
LAKE MICHIGAN

STATION/POSITION TIME  TEMP    WIND        PRES    WAVE
                       AIR SEA DIR/SP/G            HT/PER



USA.gov is the U.S. government's official web portal to all federal, state and local government web resources and services.